Flag for Canada Weather past 2 weeks in Whitehorse, Yukon Territory, Canada

Now
50 °F

Partly cloudy.


Feels Like: 46 °F
Forecast: 50 / 69 °F
Wind: 10 mph from South

Location: Withehorse

Current Time: Jul 29, 2014 at 5:34:27 AM

Latest Report: Jul 29, 2014 at 5:00 AM


Visibility: 40 mi

Pressure: 30.01 "Hg

Humidity: 94%

Dew point: 48 °F

Location of WhitehorseLocation

Historic Weather in Whitehorse — Graph

°F

Whitehorse temperature yesterday

Maximum temperature yesterday: 68 °F (at 5:00 PM)
Minimum temperature yesterday: 48 °F (at 2:00 AM)
Average temperature yesterday: 58 °F

Past Weeks' High & Low Weather Summary

 TemperatureHumidityPressure
High75 °F (Jul 15, 8:00 PM)94% (Jul 19, 5:00 AM)30.25 "Hg (Jul 19, 5:00 AM)
Low45 °F (Jul 22, 6:00 AM)27% (Jul 15, 8:00 PM)29.58 "Hg (Jul 19, 7:00 PM)
Average59 °F59%29.95 "Hg
* Reported Jul 14 4:00 AM — Jul 29 4:00 AM, Whitehorse, Weather by CustomWeather, © 2014

Note: Actual official high and low records may vary slightly from our data, if they occured in-between our weather recording intervals... More about our weather records

Advertising

Whitehorse weather history for previous 24 hours

 ConditionsComfort  
Time TempWeatherWind HumidityBarometerVisibility
4:00 AM
Jul 29
52 °FPassing clouds.10 mph94%30.01 "Hg15 mi
3:00 AM52 °FScattered showers. Mostly cloudy.10 mph94%30.01 "Hg15 mi
2:00 AM52 °FSprinkles. Overcast.7 mph94%30.01 "Hg15 mi
1:00 AM52 °FSprinkles. Overcast.6 mph94%30.03 "Hg15 mi
12:00 AM54 °FSprinkles. Overcast.6 mph88%30.03 "Hg15 mi
11:00 PM
Jul 28
54 °FSprinkles. Mostly cloudy.10 mph88%30.03 "Hg25 mi
10:00 PM59 °FSprinkles. Mostly cloudy.10 mph63%30.01 "Hg30 mi
9:00 PM63 °FMostly cloudy.10 mph52%30.01 "Hg40 mi
8:00 PM64 °FScattered showers. Mostly cloudy.9 mph49%30.01 "Hg40 mi
7:00 PM63 °FScattered showers. Cloudy.9 mph52%30.03 "Hg40 mi
6:00 PM68 °FScattered showers. Broken clouds.9 mph40%30.03 "Hg40 mi
5:00 PM68 °FBroken clouds.12 mph40%30.04 "Hg40 mi
4:00 PM66 °FSprinkles. Cloudy.7 mph46%30.06 "Hg40 mi
3:00 PM64 °FSprinkles. Cloudy.6 mph49%30.08 "Hg40 mi
2:56 PM64 °FSprinkles. Cloudy.8 mph49%30.08 "Hg40 mi
2:00 PM64 °FBroken clouds.6 mph46%30.09 "Hg40 mi
1:00 PM63 °FBroken clouds.13 mph49%30.10 "Hg40 mi
12:00 PM63 °FBroken clouds.8 mph49%30.11 "Hg40 mi
11:00 AM61 °FBroken clouds.10 mph52%30.10 "Hg40 mi
10:00 AM59 °FBroken clouds.9 mph55%30.11 "Hg40 mi
9:00 AM54 °FBroken clouds.8 mph67%30.14 "Hg40 mi
8:00 AM52 °FBroken clouds.2 mph72%30.14 "Hg40 mi
7:00 AM50 °FPartly sunny.5 mph71%30.14 "Hg40 mi
6:00 AM48 °FPassing clouds.3 mph71%30.14 "Hg40 mi
5:00 AM48 °FPartly cloudy.2 mph71%30.14 "Hg15 mi
Weather by CustomWeather, © 2014

See weather overviewHow to use our weather pages